| time (UTC) | temp F | wind direction | speed MPH | gust MPH | rain 1hr in | rain 24hr in | rain mn in | humidity % | barometer mb |
| 20260901063943 | 82 | 262 | 3.0 | 9.0 | 0.00 | 0.00 | 0.00 | 84 | 996.6 |
| 20260901063903 | 82 | 93 | 6.0 | 9.0 | 0.00 | 0.00 | 0.00 | 84 | 996.6 |
| 20260901063442 | 82 | 83 | 1.0 | 7.0 | 0.00 | 0.00 | 0.00 | 84 | 996.7 |
| 20260901063354 | 82 | 39 | 1.0 | 7.0 | 0.00 | 0.00 | 0.00 | 84 | 996.7 |
| 20260901062942 | 82 | 238 | 0.0 | 12.0 | 0.00 | 0.00 | 0.00 | 85 | 996.7 |
| 20260901062843 | 82 | 297 | 3.0 | 12.0 | 0.00 | 0.00 | 0.00 | 85 | 996.7 |
| 20260901062442 | 81 | 145 | 4.0 | 9.0 | 0.00 | 0.00 | 0.00 | 85 | 996.8 |
| 20260901062333 | 81 | 309 | 3.0 | 9.0 | 0.00 | 0.00 | 0.00 | 85 | 996.8 |
| 20260901061942 | 81 | 39 | 3.0 | 9.0 | 0.00 | 0.00 | 0.00 | 86 | 996.9 |
| 20260901061823 | 81 | 48 | 1.0 | 7.0 | 0.00 | 0.00 | 0.00 | 86 | 996.9 |
| 20260901061442 | 81 | 38 | 1.0 | 10.0 | 0.00 | 0.00 | 0.00 | 86 | 996.9 |
| 20260901061313 | 81 | 170 | 2.0 | 10.0 | 0.00 | 0.00 | 0.00 | 86 | 996.9 |
| 20260901060941 | 81 | 4 | 2.0 | 9.0 | 0.00 | 0.00 | 0.00 | 87 | 996.9 |
| 20260901060803 | 81 | 303 | 0.0 | 8.0 | 0.00 | 0.00 | 0.00 | 87 | 996.9 |
| 20260901060443 | 81 | 237 | 3.0 | 6.0 | 0.00 | 0.00 | 0.00 | 87 | 996.9 |
| 20260901060253 | 80 | 180 | 4.0 | 6.0 | 0.00 | 0.00 | 0.00 | 87 | 997.0 |
| 20260901055942 | 80 | 180 | 4.0 | 6.0 | 0.00 | 0.00 | 0.00 | 87 | 997.0 |
| 20260901055441 | 80 | 360 | 1.0 | 5.0 | 0.00 | 0.00 | 0.00 | 87 | 997.0 |
| 20260901055233 | 80 | 287 | 2.0 | 7.0 | 0.00 | 0.00 | 0.00 | 87 | 997.0 |
| 20260901054942 | 80 | 163 | 1.0 | 12.0 | 0.00 | 0.00 | 0.00 | 87 | 997.1 |
| 20260901054723 | 80 | 88 | 5.0 | 12.0 | 0.00 | 0.00 | 0.00 | 87 | 997.1 |
| 20260901054441 | 80 | 45 | 5.0 | 11.0 | 0.00 | 0.00 | 0.00 | 87 | 997.1 |
| 20260901054212 | 80 | 238 | 2.0 | 13.0 | 0.00 | 0.00 | 0.00 | 87 | 997.1 |
| 20260901053941 | 80 | 44 | 9.0 | 13.0 | 0.00 | 0.00 | 0.00 | 87 | 997.2 |
| 20260901053703 | 80 | 73 | 3.0 | 8.0 | 0.00 | 0.00 | 0.00 | 87 | 997.3 |
| 20260901053442 | 80 | 41 | 2.0 | 8.0 | 0.00 | 0.00 | 0.00 | 87 | 997.3 |
| 20260901053152 | 80 | 130 | 4.0 | 10.0 | 0.00 | 0.00 | 0.00 | 87 | 997.3 |
| 20260901052941 | 80 | 31 | 3.0 | 10.0 | 0.00 | 0.00 | 0.00 | 87 | 997.4 |
| 20260901052643 | 80 | 57 | 3.0 | 7.0 | 0.00 | 0.00 | 0.00 | 88 | 997.4 |
| 20260901052442 | 80 | 192 | 1.0 | 9.0 | 0.00 | 0.00 | 0.00 | 87 | 997.4 |
| 20260901052132 | 80 | 4 | 5.0 | 18.0 | 0.00 | 0.00 | 0.00 | 87 | 997.5 |
| 20260901051941 | 80 | 128 | 9.0 | 18.0 | 0.00 | 0.00 | 0.00 | 87 | 997.5 |
| 20260901051623 | 80 | 35 | 3.0 | 13.0 | 0.00 | 0.00 | 0.00 | 88 | 997.6 |
| 20260901051442 | 80 | 245 | 5.0 | 13.0 | 0.00 | 0.00 | 0.00 | 88 | 997.6 |
| 20260901051112 | 80 | 43 | 1.0 | 4.0 | 0.00 | 0.00 | 0.00 | 88 | 997.7 |
| 20260901050941 | 80 | 160 | 1.0 | 18.0 | 0.00 | 0.00 | 0.00 | 88 | 997.7 |
| 20260901050603 | 79 | 47 | 8.0 | 18.0 | 0.00 | 0.00 | 0.00 | 88 | 997.7 |
| 20260901050442 | 80 | 321 | 3.0 | 11.0 | 0.00 | 0.00 | 0.00 | 88 | 997.7 |
| 20260901050052 | 79 | 25 | 5.0 | 13.0 | 0.00 | 0.00 | 0.00 | 88 | 997.8 |
| 20260901045941 | 79 | 48 | 3.0 | 13.0 | 0.00 | 0.00 | 0.00 | 88 | 997.8 |
| 20260901045543 | 79 | 25 | 3.0 | 11.0 | 0.00 | 0.00 | 0.00 | 88 | 997.9 |
| 20260901045441 | 79 | 36 | 1.0 | 11.0 | 0.00 | 0.00 | 0.00 | 88 | 997.9 |
| 20260901045032 | 79 | 24 | 4.0 | 13.0 | 0.00 | 0.00 | 0.00 | 88 | 997.9 |
| 20260901044522 | 79 | 48 | 2.0 | 14.0 | 0.00 | 0.00 | 0.00 | 88 | 998.0 |
| 20260901044441 | 79 | 30 | 9.0 | 14.0 | 0.00 | 0.00 | 0.00 | 88 | 998.0 |
| 20260901044013 | 79 | 15 | 6.0 | 12.0 | 0.00 | 0.00 | 0.00 | 89 | 998.1 |
| 20260901043940 | 79 | 67 | 5.0 | 12.0 | 0.00 | 0.00 | 0.00 | 89 | 998.0 |
| 20260901043441 | 79 | 182 | 3.0 | 15.0 | 0.00 | 0.00 | 0.00 | 89 | 998.1 |
| 20260901042952 | 79 | 50 | 1.0 | 14.0 | 0.00 | 0.00 | 0.00 | 89 | 998.2 |
| 20260901042941 | 79 | 76 | 1.0 | 14.0 | 0.00 | 0.00 | 0.00 | 89 | 998.1 |
| 20260901042444 | 79 | 48 | 6.0 | 17.0 | 0.00 | 0.00 | 0.00 | 89 | 998.1 |
| 20260901042441 | 79 | 44 | 6.0 | 17.0 | 0.00 | 0.00 | 0.00 | 89 | 998.1 |
| 20260901041941 | 79 | 314 | 3.0 | 18.0 | 0.00 | 0.00 | 0.00 | 89 | 998.3 |
| 20260901041441 | 79 | 212 | 3.0 | 16.0 | 0.00 | 0.00 | 0.00 | 89 | 998.3 |
| 20260901041422 | 79 | 107 | 4.0 | 16.0 | 0.00 | 0.00 | 0.00 | 89 | 998.3 |
| 20260901040940 | 79 | 43 | 2.0 | 12.0 | 0.00 | 0.00 | 0.00 | 89 | 998.5 |
| 20260901040441 | 79 | 67 | 7.0 | 10.0 | 0.00 | 0.00 | 0.00 | 89 | 998.4 |
| 20260901040402 | 79 | 69 | 6.0 | 13.0 | 0.00 | 0.00 | 0.00 | 89 | 998.4 |
| 20260901035941 | 79 | 142 | 6.0 | 20.0 | 0.00 | 0.00 | 0.00 | 89 | 998.3 |
| 20260901035852 | 79 | 52 | 6.0 | 20.0 | 0.00 | 0.00 | 0.00 | 89 | 998.4 |
| 20260901035440 | 79 | 40 | 4.0 | 20.0 | 0.00 | 0.00 | 0.00 | 89 | 998.3 |
| 20260901035342 | 79 | 107 | 6.0 | 20.0 | 0.00 | 0.00 | 0.00 | 88 | 998.3 |
| 20260901034941 | 79 | 108 | 9.0 | 20.0 | 0.00 | 0.00 | 0.00 | 88 | 998.5 |
| 20260901034440 | 79 | 347 | 5.0 | 21.0 | 0.00 | 0.00 | 0.00 | 88 | 998.3 |
| 20260901034321 | 79 | 53 | 7.0 | 21.0 | 0.00 | 0.00 | 0.00 | 88 | 998.4 |
| 20260901033941 | 79 | 98 | 5.0 | 13.0 | 0.00 | 0.00 | 0.00 | 88 | 998.5 |
| 20260901033812 | 79 | 265 | 2.0 | 13.0 | 0.00 | 0.00 | 0.00 | 88 | 998.4 |
| 20260901033441 | 79 | 171 | 5.0 | 10.0 | 0.00 | 0.00 | 0.00 | 87 | 998.4 |
| 20260901032940 | 79 | 359 | 2.0 | 8.0 | 0.00 | 0.00 | 0.00 | 87 | 998.5 |
| 20260901032752 | 79 | 36 | 3.0 | 8.0 | 0.00 | 0.00 | 0.00 | 86 | 998.5 |
| 20260901032441 | 80 | 259 | 3.0 | 7.0 | 0.00 | 0.00 | 0.00 | 86 | 998.5 |
| 20260901032241 | 80 | 55 | 1.0 | 7.0 | 0.00 | 0.00 | 0.00 | 86 | 998.6 |
| 20260901031940 | 80 | 56 | 5.0 | 10.0 | 0.00 | 0.00 | 0.00 | 85 | 998.6 |
| 20260901031732 | 80 | 6 | 5.0 | 10.0 | 0.00 | 0.00 | 0.00 | 85 | 998.6 |
| 20260901031441 | 80 | 54 | 4.0 | 10.0 | 0.00 | 0.00 | 0.00 | 84 | 998.6 |
| 20260901030940 | 81 | 28 | 2.0 | 8.0 | 0.00 | 0.00 | 0.00 | 84 | 998.5 |
| 20260901030712 | 81 | 357 | 4.0 | 7.0 | 0.00 | 0.00 | 0.00 | 84 | 998.5 |
| 20260901030441 | 81 | 75 | 5.0 | 7.0 | 0.00 | 0.00 | 0.00 | 84 | 998.6 |
| 20260901030201 | 81 | 1 | 1.0 | 6.0 | 0.00 | 0.00 | 0.00 | 84 | 998.6 |
| 20260901025940 | 81 | 53 | 3.0 | 9.0 | 0.00 | 0.00 | 0.00 | 84 | 998.6 |
| 20260901025652 | 81 | 75 | 5.0 | 12.0 | 0.00 | 0.00 | 0.00 | 84 | 998.6 |
| 20260901025440 | 81 | 85 | 5.0 | 12.0 | 0.00 | 0.00 | 0.00 | 84 | 998.6 |
| 20260901025141 | 81 | 134 | 4.0 | 9.0 | 0.00 | 0.00 | 0.00 | 84 | 998.7 |
| 20260901024940 | 81 | 29 | 4.0 | 10.0 | 0.00 | 0.00 | 0.00 | 84 | 998.6 |
| 20260901024631 | 81 | 32 | 4.0 | 13.0 | 0.00 | 0.00 | 0.00 | 84 | 998.7 |
| 20260901024440 | 81 | 50 | 2.0 | 14.0 | 0.00 | 0.00 | 0.00 | 84 | 998.7 |
| 20260901024122 | 81 | 35 | 9.0 | 14.0 | 0.00 | 0.00 | 0.00 | 84 | 998.6 |
| 20260901023941 | 81 | 103 | 6.0 | 13.0 | 0.00 | 0.00 | 0.00 | 84 | 998.7 |
| 20260901023611 | 81 | 54 | 1.0 | 6.0 | 0.00 | 0.00 | 0.00 | 84 | 998.6 |
| 20260901023440 | 81 | 354 | 3.0 | 10.0 | 0.00 | 0.00 | 0.00 | 84 | 998.6 |
| 20260901023101 | 81 | 52 | 4.0 | 24.0 | 0.00 | 0.00 | 0.00 | 84 | 998.6 |
| 20260901022940 | 81 | 51 | 13.0 | 24.0 | 0.00 | 0.00 | 0.00 | 84 | 998.6 |
| 20260901022551 | 81 | 95 | 3.0 | 10.0 | 0.00 | 0.00 | 0.00 | 84 | 998.7 |
| 20260901022440 | 81 | 59 | 8.0 | 10.0 | 0.00 | 0.00 | 0.00 | 84 | 998.7 |
| 20260901022041 | 81 | 52 | 1.0 | 5.0 | 0.00 | 0.00 | 0.00 | 85 | 998.7 |
| 20260901021940 | 81 | 49 | 3.0 | 5.0 | 0.00 | 0.00 | 0.00 | 85 | 998.7 |
| 20260901021532 | 81 | 98 | 3.0 | 15.0 | 0.00 | 0.00 | 0.00 | 85 | 998.7 |
| 20260901021439 | 81 | 53 | 5.0 | 15.0 | 0.00 | 0.00 | 0.00 | 84 | 998.7 |
| 20260901020940 | 81 | 38 | 8.0 | 14.0 | 0.00 | 0.00 | 0.00 | 84 | 998.6 |
| 20260901020511 | 81 | 48 | 4.0 | 10.0 | 0.00 | 0.00 | 0.00 | 84 | 998.6 |
| 20260901020440 | 81 | 44 | 2.0 | 10.0 | 0.00 | 0.00 | 0.00 | 84 | 998.6 |
| 20260901020001 | 82 | 37 | 2.0 | 10.0 | 0.00 | 0.00 | 0.00 | 83 | 998.6 |
| 20260901015940 | 81 | 338 | 1.0 | 10.0 | 0.00 | 0.00 | 0.00 | 83 | 998.6 |
| 20260901015451 | 82 | 113 | 5.0 | 8.0 | 0.00 | 0.00 | 0.00 | 83 | 998.6 |
| 20260901015440 | 82 | 7 | 5.0 | 8.0 | 0.00 | 0.00 | 0.00 | 83 | 998.6 |
| 20260901014942 | 82 | 27 | 3.0 | 11.0 | 0.00 | 0.00 | 0.00 | 84 | 998.5 |
| 20260901014939 | 82 | 34 | 3.0 | 11.0 | 0.00 | 0.00 | 0.00 | 84 | 998.6 |
| 20260901014440 | 81 | 41 | 3.0 | 16.0 | 0.00 | 0.00 | 0.00 | 84 | 998.6 |
| 20260901014431 | 81 | 17 | 3.0 | 16.0 | 0.00 | 0.00 | 0.00 | 84 | 998.6 |
| 20260901013939 | 81 | 30 | 3.0 | 10.0 | 0.00 | 0.00 | 0.00 | 85 | 998.7 |
| 20260901013920 | 81 | 20 | 4.0 | 10.0 | 0.00 | 0.00 | 0.00 | 85 | 998.7 |
| 20260901013439 | 81 | 115 | 2.0 | 5.0 | 0.00 | 0.00 | 0.00 | 85 | 998.7 |
| 20260901013411 | 81 | 77 | 1.0 | 5.0 | 0.00 | 0.00 | 0.00 | 85 | 998.6 |
| 20260901012940 | 81 | 357 | 1.0 | 10.0 | 0.00 | 0.00 | 0.00 | 86 | 998.7 |
| 20260901012901 | 81 | 71 | 1.0 | 10.0 | 0.00 | 0.00 | 0.00 | 86 | 998.7 |
| 20260901012440 | 81 | 236 | 1.0 | 3.0 | 0.00 | 0.00 | 0.00 | 86 | 998.7 |
| 20260901012350 | 80 | 5 | 1.0 | 5.0 | 0.00 | 0.00 | 0.00 | 86 | 998.7 |
| 20260901011939 | 80 | 221 | 3.0 | 5.0 | 0.00 | 0.00 | 0.00 | 86 | 998.8 |
| 20260901011440 | 80 | 357 | 1.0 | 9.0 | 0.00 | 0.00 | 0.00 | 87 | 998.9 |
| 20260901011331 | 80 | 53 | 2.0 | 9.0 | 0.00 | 0.00 | 0.00 | 87 | 998.9 |
| 20260901010939 | 80 | 83 | 5.0 | 12.0 | 0.00 | 0.00 | 0.00 | 87 | 998.9 |
| 20260901010820 | 80 | 110 | 7.0 | 12.0 | 0.00 | 0.00 | 0.00 | 87 | 998.9 |
| 20260901010439 | 80 | 28 | 3.0 | 10.0 | 0.00 | 0.00 | 0.00 | 87 | 998.9 |
| 20260901010311 | 79 | 241 | 2.0 | 10.0 | 0.00 | 0.00 | 0.00 | 87 | 998.9 |
| 20260901005939 | 80 | 30 | 1.0 | 5.0 | 0.00 | 0.00 | 0.00 | 87 | 999.0 |
| 20260901005801 | 80 | 60 | 1.0 | 9.0 | 0.00 | 0.00 | 0.00 | 87 | 998.9 |
| 20260901005439 | 79 | 75 | 4.0 | 10.0 | 0.00 | 0.00 | 0.00 | 87 | 998.9 |
| 20260901005250 | 79 | 118 | 4.0 | 10.0 | 0.00 | 0.00 | 0.00 | 87 | 999.0 |
| 20260901004939 | 79 | 72 | 4.0 | 7.0 | 0.00 | 0.00 | 0.00 | 87 | 999.0 |
| 20260901004741 | 79 | 103 | 2.0 | 8.0 | 0.00 | 0.00 | 0.00 | 87 | 998.9 |
| 20260901004439 | 80 | 95 | 5.0 | 9.0 | 0.00 | 0.00 | 0.00 | 87 | 998.9 |
| 20260901004231 | 79 | 145 | 5.0 | 9.0 | 0.00 | 0.00 | 0.00 | 87 | 998.9 |
| 20260901003939 | 80 | 95 | 6.0 | 9.0 | 0.00 | 0.00 | 0.00 | 87 | 998.8 |
| 20260901003720 | 80 | 54 | 2.0 | 4.0 | 0.00 | 0.00 | 0.00 | 87 | 998.9 |
| 20260901003439 | 80 | 256 | 0.0 | 3.0 | 0.00 | 0.00 | 0.00 | 87 | 998.8 |
| 20260901003211 | 79 | 54 | 0.0 | 6.0 | 0.00 | 0.00 | 0.00 | 87 | 998.8 |
| 20260901002940 | 79 | 238 | 2.0 | 6.0 | 0.00 | 0.00 | 0.00 | 87 | 998.7 |
| 20260901002700 | 79 | 219 | 1.0 | 4.0 | 0.00 | 0.00 | 0.00 | 87 | 998.8 |
| 20260901002439 | 79 | 35 | 0.0 | 4.0 | 0.00 | 0.00 | 0.00 | 87 | 998.7 |
| 20260901002150 | 79 | 287 | 2.0 | 6.0 | 0.00 | 0.00 | 0.00 | 87 | 998.7 |
| 20260901001939 | 80 | 6 | 3.0 | 8.0 | 0.00 | 0.00 | 0.00 | 87 | 998.7 |
| 20260901001639 | 79 | 55 | 2.0 | 9.0 | 0.00 | 0.00 | 0.00 | 87 | 998.7 |
| 20260901001439 | 79 | 151 | 2.0 | 9.0 | 0.00 | 0.00 | 0.00 | 87 | 998.6 |
| 20260901001130 | 79 | 77 | 4.0 | 10.0 | 0.00 | 0.00 | 0.00 | 87 | 998.6 |
| 20260901000939 | 79 | 48 | 2.0 | 10.0 | 0.00 | 0.00 | 0.00 | 87 | 998.6 |
| 20260901000620 | 79 | 89 | 4.0 | 8.0 | 0.00 | 0.00 | 0.00 | 87 | 998.6 |
| 20260901000439 | 79 | 50 | 2.0 | 6.0 | 0.00 | 0.00 | 0.00 | 87 | 998.6 |
| 20260901000110 | 79 | 28 | 1.0 | 3.0 | 0.00 | 0.00 | 0.00 | 87 | 998.6 |
| 20260831235939 | 79 | 126 | 1.0 | 9.0 | 0.00 | 0.00 | 0.00 | 87 | 998.6 |
| 20260831235600 | 79 | 55 | 4.0 | 9.0 | 0.00 | 0.00 | 0.00 | 87 | 998.6 |
| 20260831235439 | 79 | 40 | 3.0 | 6.0 | 0.00 | 0.00 | 0.00 | 87 | 998.6 |
| 20260831235050 | 79 | 108 | 1.0 | 13.0 | 0.00 | 0.00 | 0.00 | 87 | 998.5 |
| 20260831234938 | 79 | 77 | 2.0 | 13.0 | 0.00 | 0.00 | 0.00 | 87 | 998.6 |
| 20260831234540 | 79 | 14 | 0.0 | 5.0 | 0.00 | 0.00 | 0.00 | 87 | 998.5 |
| 20260831234439 | 79 | 91 | 2.0 | 5.0 | 0.00 | 0.00 | 0.00 | 86 | 998.5 |
| 20260831234030 | 79 | 116 | 2.0 | 4.0 | 0.00 | 0.00 | 0.00 | 86 | 998.5 |
| 20260831233938 | 79 | 218 | 1.0 | 3.0 | 0.00 | 0.00 | 0.00 | 86 | 998.4 |
| 20260831233438 | 79 | 52 | 2.0 | 6.0 | 0.00 | 0.00 | 0.00 | 86 | 998.4 |
| 20260831233010 | 79 | 257 | 0.0 | 4.0 | 0.00 | 0.00 | 0.00 | 86 | 998.4 |
| 20260831232939 | 79 | 274 | 0.0 | 4.0 | 0.00 | 0.00 | 0.00 | 86 | 998.4 |
| 20260831232459 | 79 | 224 | 1.0 | 4.0 | 0.00 | 0.00 | 0.00 | 85 | 998.4 |
| 20260831232438 | 80 | 252 | 1.0 | 4.0 | 0.00 | 0.00 | 0.00 | 85 | 998.4 |
| 20260831231939 | 80 | 185 | 1.0 | 3.0 | 0.00 | 0.00 | 0.00 | 85 | 998.3 |
| 20260831231440 | 80 | 235 | 1.0 | 2.0 | 0.00 | 0.00 | 0.00 | 84 | 998.2 |
| 20260831230938 | 80 | 106 | 1.0 | 8.0 | 0.00 | 0.00 | 0.00 | 83 | 998.1 |
| 20260831230930 | 80 | 134 | 1.0 | 8.0 | 0.00 | 0.00 | 0.00 | 83 | 998.2 |
| 20260831230439 | 81 | 41 | 1.0 | 5.0 | 0.00 | 0.00 | 0.00 | 82 | 998.1 |
| 20260831230420 | 81 | 9 | 0.0 | 6.0 | 0.00 | 0.00 | 0.00 | 82 | 998.1 |
| 20260831225938 | 81 | 45 | 6.0 | 12.0 | 0.00 | 0.00 | 0.00 | 81 | 998.1 |
| 20260831225909 | 81 | 104 | 7.0 | 12.0 | 0.00 | 0.00 | 0.00 | 81 | 998.0 |
| 20260831225438 | 81 | 91 | 6.0 | 10.0 | 0.00 | 0.00 | 0.00 | 81 | 997.9 |
| 20260831225400 | 81 | 204 | 3.0 | 7.0 | 0.00 | 0.00 | 0.00 | 80 | 997.9 |
| 20260831224939 | 81 | 115 | 2.0 | 12.0 | 0.00 | 0.00 | 0.00 | 80 | 997.8 |
| 20260831224850 | 81 | 47 | 7.0 | 12.0 | 0.00 | 0.00 | 0.00 | 80 | 997.9 |
| 20260831224438 | 81 | 39 | 1.0 | 6.0 | 0.00 | 0.00 | 0.00 | 80 | 997.8 |
| 20260831224339 | 81 | 42 | 3.0 | 6.0 | 0.00 | 0.00 | 0.00 | 80 | 997.8 |
| 20260831223938 | 81 | 104 | 4.0 | 7.0 | 0.00 | 0.00 | 0.00 | 80 | 997.8 |
| 20260831223830 | 81 | 56 | 2.0 | 7.0 | 0.00 | 0.00 | 0.00 | 80 | 997.7 |
| 20260831223439 | 81 | 100 | 3.0 | 8.0 | 0.00 | 0.00 | 0.00 | 80 | 997.8 |
| 20260831223319 | 81 | 49 | 1.0 | 17.0 | 0.00 | 0.00 | 0.00 | 80 | 997.7 |
| 20260831222938 | 81 | 88 | 10.0 | 17.0 | 0.00 | 0.00 | 0.00 | 80 | 997.7 |
| 20260831222809 | 81 | 67 | 0.0 | 8.0 | 0.00 | 0.00 | 0.00 | 80 | 997.7 |
| 20260831222438 | 81 | 70 | 2.0 | 4.0 | 0.00 | 0.00 | 0.00 | 80 | 997.7 |
| 20260831222300 | 81 | 77 | 1.0 | 3.0 | 0.00 | 0.00 | 0.00 | 80 | 997.7 |
| 20260831221938 | 81 | 260 | 0.0 | 12.0 | 0.00 | 0.00 | 0.00 | 80 | 997.7 |
| 20260831221749 | 81 | 286 | 1.0 | 12.0 | 0.00 | 0.00 | 0.00 | 80 | 997.7 |
| 20260831221438 | 81 | 152 | 1.0 | 4.0 | 0.00 | 0.00 | 0.00 | 80 | 997.7 |
| 20260831221239 | 81 | 318 | 1.0 | 3.0 | 0.00 | 0.00 | 0.00 | 80 | 997.6 |
| 20260831220938 | 81 | 97 | 1.0 | 3.0 | 0.00 | 0.00 | 0.00 | 80 | 997.6 |
| 20260831220729 | 81 | 61 | 1.0 | 7.0 | 0.00 | 0.00 | 0.00 | 80 | 997.6 |
| 20260831220438 | 81 | 131 | 3.0 | 7.0 | 0.00 | 0.00 | 0.00 | 80 | 997.6 |
| 20260831220219 | 81 | 217 | 5.0 | 6.0 | 0.00 | 0.00 | 0.00 | 80 | 997.6 |
| 20260831215938 | 81 | 220 | 3.0 | 6.0 | 0.00 | 0.00 | 0.00 | 80 | 997.6 |
| 20260831215709 | 81 | 221 | 2.0 | 6.0 | 0.00 | 0.00 | 0.00 | 80 | 997.6 |
| 20260831215438 | 81 | 138 | 4.0 | 8.0 | 0.00 | 0.00 | 0.00 | 80 | 997.6 |
| 20260831215159 | 81 | 127 | 5.0 | 8.0 | 0.00 | 0.00 | 0.00 | 80 | 997.5 |
| 20260831214937 | 81 | 211 | 3.0 | 5.0 | 0.00 | 0.00 | 0.00 | 80 | 997.6 |
| 20260831214649 | 81 | 205 | 4.0 | 5.0 | 0.00 | 0.00 | 0.00 | 80 | 997.6 |
| 20260831214438 | 81 | 267 | 2.0 | 6.0 | 0.00 | 0.00 | 0.00 | 79 | 997.6 |
| 20260831214139 | 81 | 97 | 3.0 | 6.0 | 0.00 | 0.00 | 0.00 | 79 | 997.6 |
| 20260831213938 | 81 | 338 | 1.0 | 6.0 | 0.00 | 0.00 | 0.00 | 80 | 997.6 |
| 20260831213628 | 81 | 9 | 3.0 | 9.0 | 0.00 | 0.00 | 0.00 | 80 | 997.5 |
| 20260831213437 | 81 | 45 | 1.0 | 16.0 | 0.00 | 0.00 | 0.00 | 80 | 997.5 |
| 20260831213119 | 81 | 24 | 6.0 | 16.0 | 0.00 | 0.00 | 0.00 | 80 | 997.5 |
| 20260831212938 | 81 | 173 | 2.0 | 9.0 | 0.00 | 0.00 | 0.00 | 79 | 997.4 |
| 20260831212609 | 81 | 324 | 2.0 | 9.0 | 0.00 | 0.00 | 0.00 | 80 | 997.4 |
| 20260831212438 | 81 | 99 | 1.0 | 9.0 | 0.00 | 0.00 | 0.00 | 80 | 997.3 |
| 20260831212058 | 81 | 57 | 2.0 | 5.0 | 0.00 | 0.00 | 0.00 | 80 | 997.3 |
| 20260831211937 | 81 | 107 | 1.0 | 4.0 | 0.00 | 0.00 | 0.00 | 79 | 997.3 |
| 20260831211549 | 81 | 214 | 0.0 | 7.0 | 0.00 | 0.00 | 0.00 | 80 | 997.3 |
| 20260831211438 | 81 | 255 | 1.0 | 7.0 | 0.00 | 0.00 | 0.00 | 80 | 997.3 |
| 20260831211039 | 81 | 74 | 2.0 | 10.0 | 0.00 | 0.00 | 0.00 | 80 | 997.3 |
| 20260831210938 | 81 | 89 | 5.0 | 10.0 | 0.00 | 0.00 | 0.00 | 80 | 997.3 |
| 20260831210529 | 81 | 19 | 1.0 | 3.0 | 0.00 | 0.00 | 0.00 | 80 | 997.3 |
| 20260831210437 | 81 | 26 | 1.0 | 3.0 | 0.00 | 0.00 | 0.00 | 80 | 997.3 |
| 20260831210019 | 81 | 95 | 1.0 | 8.0 | 0.00 | 0.00 | 0.00 | 79 | 997.3 |
| 20260831205938 | 81 | 282 | 2.0 | 8.0 | 0.00 | 0.00 | 0.00 | 79 | 997.3 |
| 20260831205508 | 81 | 41 | 2.0 | 4.0 | 0.00 | 0.00 | 0.00 | 79 | 997.3 |
| 20260831205437 | 81 | 48 | 1.0 | 4.0 | 0.00 | 0.00 | 0.00 | 79 | 997.3 |
| 20260831204959 | 81 | 351 | 1.0 | 4.0 | 0.00 | 0.00 | 0.00 | 79 | 997.2 |
| 20260831204937 | 81 | 33 | 1.0 | 5.0 | 0.00 | 0.00 | 0.00 | 79 | 997.2 |
| 20260831204449 | 81 | 284 | 2.0 | 5.0 | 0.00 | 0.00 | 0.00 | 80 | 997.3 |
| 20260831204438 | 81 | 266 | 2.0 | 5.0 | 0.00 | 0.00 | 0.00 | 79 | 997.3 |
| 20260831203939 | 81 | 134 | 1.0 | 6.0 | 0.00 | 0.00 | 0.00 | 80 | 997.2 |
| 20260831203937 | 81 | 117 | 1.0 | 6.0 | 0.00 | 0.00 | 0.00 | 80 | 997.2 |
| 20260831203438 | 81 | 70 | 3.0 | 5.0 | 0.00 | 0.00 | 0.00 | 80 | 997.2 |
| 20260831203428 | 81 | 60 | 3.0 | 5.0 | 0.00 | 0.00 | 0.00 | 80 | 997.2 |
| 20260831202938 | 81 | 276 | 0.0 | 8.0 | 0.00 | 0.00 | 0.00 | 80 | 997.2 |
| 20260831202918 | 81 | 222 | 1.0 | 8.0 | 0.00 | 0.00 | 0.00 | 80 | 997.2 |
| 20260831202437 | 81 | 96 | 2.0 | 5.0 | 0.00 | 0.00 | 0.00 | 81 | 997.3 |
| 20260831202408 | 81 | 103 | 1.0 | 5.0 | 0.00 | 0.00 | 0.00 | 81 | 997.3 |
| 20260831201937 | 81 | 351 | 3.0 | 11.0 | 0.00 | 0.00 | 0.00 | 81 | 997.3 |
| 20260831201859 | 81 | 93 | 7.0 | 11.0 | 0.00 | 0.00 | 0.00 | 82 | 997.3 |
| 20260831201437 | 81 | 49 | 0.0 | 1.0 | 0.00 | 0.00 | 0.00 | 82 | 997.3 |
| 20260831200937 | 81 | 335 | 0.0 | 5.0 | 0.00 | 0.00 | 0.00 | 82 | 997.3 |
| 20260831200838 | 81 | 360 | 0.0 | 5.0 | 0.00 | 0.00 | 0.00 | 82 | 997.4 |
| 20260831200437 | 81 | 226 | 1.0 | 2.0 | 0.00 | 0.00 | 0.00 | 82 | 997.4 |
| 20260831200329 | 81 | 267 | 0.0 | 2.0 | 0.00 | 0.00 | 0.00 | 82 | 997.5 |
| 20260831195937 | 81 | 218 | 1.0 | 3.0 | 0.00 | 0.00 | 0.00 | 82 | 997.5 |
| 20260831195437 | 81 | 202 | 2.0 | 5.0 | 0.00 | 0.00 | 0.00 | 82 | 997.5 |
| 20260831195309 | 81 | 209 | 4.0 | 7.0 | 0.00 | 0.00 | 0.00 | 82 | 997.6 |
| 20260831194936 | 81 | 215 | 4.0 | 7.0 | 0.00 | 0.00 | 0.00 | 82 | 997.6 |
| 20260831194758 | 81 | 200 | 2.0 | 4.0 | 0.00 | 0.00 | 0.00 | 82 | 997.6 |
| 20260831194437 | 81 | 229 | 1.0 | 3.0 | 0.00 | 0.00 | 0.00 | 82 | 997.6 |
| 20260831194248 | 81 | 67 | 0.0 | 4.0 | 0.00 | 0.00 | 0.00 | 82 | 997.6 |
| 20260831193937 | 81 | 108 | 1.0 | 10.0 | 0.00 | 0.00 | 0.00 | 82 | 997.6 |
| 20260831193738 | 81 | 106 | 5.0 | 10.0 | 0.00 | 0.00 | 0.00 | 82 | 997.6 |
| 20260831193436 | 81 | 109 | 3.0 | 6.0 | 0.00 | 0.00 | 0.00 | 82 | 997.6 |
| 20260831193228 | 81 | 31 | 4.0 | 6.0 | 0.00 | 0.00 | 0.00 | 82 | 997.6 |
| 20260831192937 | 81 | 9 | 2.0 | 5.0 | 0.00 | 0.00 | 0.00 | 82 | 997.6 |
| 20260831192717 | 81 | 319 | 0.0 | 7.0 | 0.00 | 0.00 | 0.00 | 82 | 997.6 |
| 20260831192436 | 81 | 322 | 1.0 | 7.0 | 0.00 | 0.00 | 0.00 | 82 | 997.6 |
| 20260831192208 | 81 | 238 | 3.0 | 5.0 | 0.00 | 0.00 | 0.00 | 82 | 997.6 |
| 20260831191937 | 81 | 278 | 2.0 | 7.0 | 0.00 | 0.00 | 0.00 | 82 | 997.7 |
| 20260831191658 | 81 | 218 | 3.0 | 7.0 | 0.00 | 0.00 | 0.00 | 82 | 997.7 |
| 20260831191437 | 81 | 225 | 0.0 | 4.0 | 0.00 | 0.00 | 0.00 | 82 | 997.7 |
| 20260831191147 | 81 | 338 | 0.0 | 4.0 | 0.00 | 0.00 | 0.00 | 82 | 997.7 |
| 20260831190936 | 81 | 277 | 1.0 | 5.0 | 0.00 | 0.00 | 0.00 | 82 | 997.7 |
| 20260831190638 | 81 | 272 | 2.0 | 8.0 | 0.00 | 0.00 | 0.00 | 81 | 997.7 |
| 20260831190437 | 81 | 185 | 5.0 | 8.0 | 0.00 | 0.00 | 0.00 | 81 | 997.7 |
| 20260831190128 | 81 | 267 | 3.0 | 7.0 | 0.00 | 0.00 | 0.00 | 81 | 997.8 |
| 20260831185936 | 81 | 248 | 3.0 | 8.0 | 0.00 | 0.00 | 0.00 | 81 | 997.7 |
| 20260831185617 | 81 | 166 | 5.0 | 8.0 | 0.00 | 0.00 | 0.00 | 81 | 997.7 |
| 20260831185436 | 81 | 243 | 1.0 | 3.0 | 0.00 | 0.00 | 0.00 | 81 | 997.8 |
| 20260831185108 | 81 | 24 | 0.0 | 9.0 | 0.00 | 0.00 | 0.00 | 81 | 997.8 |
| 20260831184937 | 81 | 12 | 1.0 | 9.0 | 0.00 | 0.00 | 0.00 | 81 | 997.8 |
| 20260831184557 | 81 | 54 | 0.0 | 6.0 | 0.00 | 0.00 | 0.00 | 81 | 997.8 |
| 20260831184436 | 81 | 57 | 0.0 | 6.0 | 0.00 | 0.00 | 0.00 | 81 | 997.9 |
| 20260831184047 | 81 | 195 | 2.0 | 6.0 | 0.00 | 0.00 | 0.00 | 81 | 997.8 |
| 20260831183936 | 81 | 169 | 3.0 | 6.0 | 0.00 | 0.00 | 0.00 | 81 | 997.8 |
| 20260831183538 | 81 | 201 | 0.0 | 5.0 | 0.00 | 0.00 | 0.00 | 81 | 997.8 |
| 20260831183437 | 81 | 256 | 0.0 | 5.0 | 0.00 | 0.00 | 0.00 | 81 | 997.8 |
| 20260831183027 | 81 | 21 | 1.0 | 8.0 | 0.00 | 0.00 | 0.00 | 81 | 997.9 |
| 20260831182936 | 81 | 15 | 0.0 | 8.0 | 0.00 | 0.00 | 0.00 | 81 | 997.9 |
| 20260831182518 | 81 | 93 | 3.0 | 6.0 | 0.00 | 0.00 | 0.00 | 81 | 997.9 |
| 20260831182436 | 81 | 173 | 2.0 | 5.0 | 0.00 | 0.00 | 0.00 | 81 | 997.9 |
| 20260831182007 | 81 | 17 | 0.0 | 2.0 | 0.00 | 0.00 | 0.00 | 82 | 998.0 |
| 20260831181936 | 81 | 355 | 1.0 | 3.0 | 0.00 | 0.00 | 0.00 | 82 | 998.0 |
| 20260831181458 | 81 | 23 | 3.0 | 11.0 | 0.00 | 0.00 | 0.00 | 82 | 998.1 |
| 20260831181436 | 81 | 58 | 3.0 | 13.0 | 0.00 | 0.00 | 0.00 | 82 | 998.1 |
| 20260831180947 | 80 | 75 | 8.0 | 14.0 | 0.00 | 0.00 | 0.00 | 83 | 998.1 |
| 20260831180936 | 80 | 59 | 6.0 | 14.0 | 0.00 | 0.00 | 0.00 | 83 | 998.1 |
| 20260831180438 | 80 | 113 | 1.0 | 3.0 | 0.00 | 0.00 | 0.00 | 84 | 998.1 |
| 20260831180436 | 80 | 137 | 1.0 | 3.0 | 0.00 | 0.00 | 0.00 | 84 | 998.1 |
| 20260831175937 | 80 | 255 | 2.0 | 4.0 | 0.00 | 0.00 | 0.00 | 84 | 998.2 |
| 20260831175927 | 80 | 243 | 1.0 | 4.0 | 0.00 | 0.00 | 0.00 | 84 | 998.2 |
| 20260831175436 | 80 | 192 | 3.0 | 5.0 | 0.00 | 0.00 | 0.00 | 84 | 998.3 |
| 20260831175417 | 80 | 203 | 3.0 | 4.0 | 0.00 | 0.00 | 0.00 | 84 | 998.2 |
| 20260831174936 | 80 | 292 | 1.0 | 2.0 | 0.00 | 0.00 | 0.00 | 84 | 998.3 |
| 20260831174908 | 80 | 275 | 1.0 | 2.0 | 0.00 | 0.00 | 0.00 | 84 | 998.4 |
| 20260831174436 | 80 | 222 | 1.0 | 2.0 | 0.00 | 0.00 | 0.00 | 85 | 998.4 |
| 20260831174357 | 80 | 208 | 1.0 | 2.0 | 0.00 | 0.00 | 0.00 | 85 | 998.4 |
| 20260831173936 | 80 | 178 | 1.0 | 5.0 | 0.00 | 0.00 | 0.00 | 85 | 998.4 |
| 20260831173847 | 80 | 225 | 2.0 | 5.0 | 0.00 | 0.00 | 0.00 | 85 | 998.4 |
| 20260831173436 | 80 | 211 | 1.0 | 5.0 | 0.00 | 0.00 | 0.00 | 85 | 998.4 |
| 20260831173337 | 80 | 163 | 0.0 | 5.0 | 0.00 | 0.00 | 0.00 | 85 | 998.4 |
| 20260831172936 | 80 | 182 | 2.0 | 6.0 | 0.00 | 0.00 | 0.00 | 85 | 998.4 |
| 20260831172827 | 80 | 252 | 2.0 | 6.0 | 0.00 | 0.00 | 0.00 | 85 | 998.4 |
| 20260831172436 | 80 | 179 | 2.0 | 4.0 | 0.00 | 0.00 | 0.00 | 85 | 998.5 |
| 20260831172317 | 80 | 182 | 2.0 | 4.0 | 0.00 | 0.00 | 0.00 | 85 | 998.5 |
| 20260831171935 | 81 | 165 | 2.0 | 4.0 | 0.00 | 0.00 | 0.00 | 85 | 998.5 |
| 20260831171807 | 81 | 208 | 2.0 | 4.0 | 0.00 | 0.00 | 0.00 | 85 | 998.5 |
| 20260831171436 | 81 | 60 | 0.0 | 1.0 | 0.00 | 0.00 | 0.00 | 85 | 998.6 |
| 20260831171257 | 81 | 148 | 1.0 | 1.0 | 0.00 | 0.00 | 0.00 | 85 | 998.6 |
| 20260831170935 | 81 | 243 | 0.0 | 1.0 | 0.00 | 0.00 | 0.00 | 85 | 998.5 |
| 20260831170747 | 81 | 182 | 1.0 | 1.0 | 0.00 | 0.00 | 0.00 | 85 | 998.6 |
| 20260831170436 | 81 | 137 | 1.0 | 1.0 | 0.00 | 0.00 | 0.00 | 85 | 998.6 |
| 20260831170237 | 80 | 57 | 0.0 | 1.0 | 0.00 | 0.00 | 0.00 | 85 | 998.6 |
| 20260831165936 | 80 | 196 | 0.0 | 3.0 | 0.00 | 0.00 | 0.00 | 85 | 998.6 |
| 20260831165727 | 80 | 204 | 1.0 | 3.0 | 0.00 | 0.00 | 0.00 | 85 | 998.6 |
| 20260831165435 | 81 | 223 | 1.0 | 2.0 | 0.00 | 0.00 | 0.00 | 85 | 998.6 |
| 20260831164936 | 81 | 212 | 2.0 | 3.0 | 0.00 | 0.00 | 0.00 | 85 | 998.7 |
| 20260831164707 | 80 | 219 | 1.0 | 3.0 | 0.00 | 0.00 | 0.00 | 85 | 998.7 |
| 20260831164436 | 80 | 157 | 1.0 | 2.0 | 0.00 | 0.00 | 0.00 | 85 | 998.6 |
| 20260831164156 | 80 | 341 | 0.0 | 2.0 | 0.00 | 0.00 | 0.00 | 85 | 998.7 |
| 20260831163935 | 80 | 271 | 1.0 | 2.0 | 0.00 | 0.00 | 0.00 | 85 | 998.7 |
| 20260831163435 | 81 | 274 | 0.0 | 3.0 | 0.00 | 0.00 | 0.00 | 85 | 998.7 |
| 20260831163137 | 81 | 205 | 0.0 | 2.0 | 0.00 | 0.00 | 0.00 | 85 | 998.7 |
| 20260831162936 | 81 | 307 | 0.0 | 2.0 | 0.00 | 0.00 | 0.00 | 85 | 998.7 |
| 20260831162626 | 81 | 182 | 0.0 | 2.0 | 0.00 | 0.00 | 0.00 | 84 | 998.8 |
| 20260831162435 | 81 | 230 | 1.0 | 3.0 | 0.00 | 0.00 | 0.00 | 84 | 998.8 |
| 20260831162117 | 81 | 277 | 2.0 | 4.0 | 0.00 | 0.00 | 0.00 | 84 | 998.9 |
| 20260831161935 | 81 | 80 | 1.0 | 4.0 | 0.00 | 0.00 | 0.00 | 84 | 998.9 |
| 20260831161607 | 81 | 183 | 3.0 | 4.0 | 0.00 | 0.00 | 0.00 | 84 | 998.9 |
| 20260831161436 | 81 | 163 | 2.0 | 4.0 | 0.00 | 0.00 | 0.00 | 84 | 999.0 |
| 20260831161056 | 81 | 175 | 3.0 | 7.0 | 0.00 | 0.00 | 0.00 | 84 | 999.0 |
| 20260831160935 | 81 | 190 | 4.0 | 7.0 | 0.00 | 0.00 | 0.00 | 84 | 999.0 |
| 20260831160547 | 81 | 183 | 4.0 | 5.0 | 0.00 | 0.00 | 0.00 | 83 | 999.1 |
| 20260831160436 | 81 | 201 | 3.0 | 5.0 | 0.00 | 0.00 | 0.00 | 83 | 999.1 |
| 20260831160036 | 81 | 216 | 2.0 | 3.0 | 0.00 | 0.00 | 0.00 | 83 | 999.1 |
| 20260831155935 | 81 | 217 | 1.0 | 3.0 | 0.00 | 0.00 | 0.00 | 83 | 999.1 |
| 20260831155526 | 81 | 236 | 1.0 | 2.0 | 0.00 | 0.00 | 0.00 | 83 | 999.1 |
| 20260831155435 | 81 | 231 | 0.0 | 1.0 | 0.00 | 0.00 | 0.00 | 83 | 999.1 |
| 20260831155016 | 81 | 234 | 0.0 | 1.0 | 0.00 | 0.00 | 0.00 | 83 | 999.1 |
| 20260831154935 | 81 | 257 | 0.0 | 1.0 | 0.00 | 0.00 | 0.00 | 83 | 999.1 |
| 20260831154506 | 81 | 269 | 0.0 | 1.0 | 0.00 | 0.00 | 0.00 | 83 | 999.1 |
| 20260831154435 | 81 | 271 | 0.0 | 1.0 | 0.00 | 0.00 | 0.00 | 83 | 999.2 |
| 20260831153957 | 81 | 33 | 0.0 | 1.0 | 0.00 | 0.00 | 0.00 | 83 | 999.1 |
| 20260831153935 | 81 | 37 | 0.0 | 2.0 | 0.00 | 0.00 | 0.00 | 83 | 999.2 |
| 20260831153446 | 81 | 44 | 1.0 | 4.0 | 0.00 | 0.00 | 0.00 | 83 | 999.2 |
| 20260831153435 | 81 | 56 | 1.0 | 4.0 | 0.00 | 0.00 | 0.00 | 83 | 999.1 |
| 20260831152937 | 81 | 88 | 1.0 | 8.0 | 0.00 | 0.00 | 0.00 | 82 | 999.2 |
| 20260831152935 | 81 | 50 | 1.0 | 8.0 | 0.00 | 0.00 | 0.00 | 82 | 999.2 |
| 20260831152434 | 81 | 67 | 3.0 | 6.0 | 0.00 | 0.00 | 0.00 | 83 | 999.3 |
| 20260831152426 | 81 | 57 | 3.0 | 6.0 | 0.00 | 0.00 | 0.00 | 83 | 999.3 |
| 20260831151916 | 81 | 66 | 4.0 | 9.0 | 0.00 | 0.00 | 0.00 | 83 | 999.4 |
| 20260831151435 | 81 | 76 | 4.0 | 11.0 | 0.00 | 0.00 | 0.00 | 84 | 999.4 |
| 20260831151406 | 80 | 55 | 4.0 | 11.0 | 0.00 | 0.00 | 0.00 | 84 | 999.5 |
| 20260831150934 | 80 | 65 | 2.0 | 5.0 | 0.00 | 0.00 | 0.00 | 85 | 999.5 |
| 20260831150856 | 81 | 51 | 3.0 | 5.0 | 0.00 | 0.00 | 0.00 | 85 | 999.5 |
| 20260831150435 | 81 | 188 | 2.0 | 3.0 | 0.00 | 0.00 | 0.00 | 86 | 999.5 |
| 20260831150346 | 81 | 200 | 2.0 | 3.0 | 0.00 | 0.00 | 0.00 | 86 | 999.5 |
| 20260831145935 | 80 | 50 | 0.0 | 2.0 | 0.00 | 0.00 | 0.00 | 86 | 999.5 |
| 20260831145836 | 80 | 148 | 1.0 | 2.0 | 0.00 | 0.00 | 0.00 | 86 | 999.5 |
| 20260831145434 | 80 | 65 | 1.0 | 4.0 | 0.00 | 0.00 | 0.00 | 86 | 999.5 |
| 20260831145326 | 80 | 62 | 1.0 | 4.0 | 0.00 | 0.00 | 0.00 | 86 | 999.5 |
| 20260831144934 | 80 | 54 | 0.0 | 2.0 | 0.00 | 0.00 | 0.00 | 86 | 999.5 |
| 20260831144816 | 80 | 12 | 1.0 | 3.0 | 0.00 | 0.00 | 0.00 | 87 | 999.4 |
| 20260831144435 | 80 | 224 | 2.0 | 4.0 | 0.00 | 0.00 | 0.00 | 87 | 999.4 |
| 20260831144306 | 80 | 170 | 1.0 | 4.0 | 0.00 | 0.00 | 0.00 | 87 | 999.4 |
| 20260831143934 | 81 | 345 | 0.0 | 1.0 | 0.00 | 0.00 | 0.00 | 87 | 999.4 |
| 20260831143755 | 80 | 306 | 0.0 | 1.0 | 0.00 | 0.00 | 0.00 | 87 | 999.4 |
| 20260831143434 | 80 | 271 | 0.0 | 1.0 | 0.00 | 0.00 | 0.00 | 87 | 999.3 |
| 20260831143246 | 81 | 350 | 0.0 | 1.0 | 0.00 | 0.00 | 0.00 | 87 | 999.3 |
| 20260831142735 | 80 | 203 | 2.0 | 3.0 | 0.00 | 0.00 | 0.00 | 87 | 999.3 |
| 20260831142434 | 80 | 229 | 1.0 | 4.0 | 0.00 | 0.00 | 0.00 | 87 | 999.4 |
| 20260831142226 | 80 | 164 | 3.0 | 4.0 | 0.00 | 0.00 | 0.00 | 87 | 999.3 |
| 20260831141934 | 81 | 208 | 2.0 | 4.0 | 0.00 | 0.00 | 0.00 | 87 | 999.3 |
| 20260831141715 | 80 | 197 | 1.0 | 3.0 | 0.00 | 0.00 | 0.00 | 87 | 999.3 |
| 20260831141434 | 80 | 183 | 1.0 | 3.0 | 0.00 | 0.00 | 0.00 | 87 | 999.3 |
| 20260831141205 | 80 | 162 | 1.0 | 2.0 | 0.00 | 0.00 | 0.00 | 87 | 999.3 |
| 20260831140935 | 80 | 82 | 0.0 | 1.0 | 0.00 | 0.00 | 0.00 | 87 | 999.3 |
| 20260831140656 | 80 | 50 | 0.0 | 1.0 | 0.00 | 0.00 | 0.00 | 87 | 999.3 |
| 20260831140434 | 80 | 60 | 0.0 | 1.0 | 0.00 | 0.00 | 0.00 | 87 | 999.2 |
| 20260831140145 | 80 | 44 | 0.0 | 1.0 | 0.00 | 0.00 | 0.00 | 87 | 999.2 |
| 20260831135934 | 80 | 33 | 0.0 | 2.0 | 0.00 | 0.00 | 0.00 | 87 | 999.2 |
| 20260831135635 | 80 | 208 | 1.0 | 2.0 | 0.00 | 0.00 | 0.00 | 87 | 999.3 |
| 20260831135434 | 80 | 189 | 0.0 | 1.0 | 0.00 | 0.00 | 0.00 | 87 | 999.3 |
| 20260831135125 | 80 | 155 | 1.0 | 3.0 | 0.00 | 0.00 | 0.00 | 87 | 999.2 |
| 20260831134934 | 80 | 196 | 0.0 | 5.0 | 0.00 | 0.00 | 0.00 | 87 | 999.2 |
| 20260831134434 | 80 | 34 | 1.0 | 2.0 | 0.00 | 0.00 | 0.00 | 87 | 999.2 |
| 20260831134106 | 80 | 55 | 1.0 | 2.0 | 0.00 | 0.00 | 0.00 | 87 | 999.2 |
| 20260831133934 | 80 | 39 | 0.0 | 2.0 | 0.00 | 0.00 | 0.00 | 87 | 999.2 |
| 20260831133555 | 80 | 204 | 1.0 | 5.0 | 0.00 | 0.00 | 0.00 | 87 | 999.2 |
| 20260831133434 | 80 | 172 | 1.0 | 5.0 | 0.00 | 0.00 | 0.00 | 87 | 999.2 |
| 20260831133045 | 81 | 192 | 1.0 | 2.0 | 0.00 | 0.00 | 0.00 | 87 | 999.1 |
| 20260831132934 | 81 | 191 | 0.0 | 2.0 | 0.00 | 0.00 | 0.00 | 87 | 999.2 |
| 20260831132535 | 81 | 211 | 1.0 | 2.0 | 0.00 | 0.00 | 0.00 | 87 | 999.1 |
| 20260831132434 | 81 | 215 | 1.0 | 2.0 | 0.00 | 0.00 | 0.00 | 87 | 999.1 |
| 20260831132025 | 81 | 187 | 1.0 | 3.0 | 0.00 | 0.00 | 0.00 | 87 | 999.0 |
| 20260831131934 | 81 | 198 | 2.0 | 3.0 | 0.00 | 0.00 | 0.00 | 87 | 999.1 |
| 20260831131515 | 81 | 168 | 2.0 | 4.0 | 0.00 | 0.00 | 0.00 | 87 | 999.0 |
| 20260831131433 | 81 | 194 | 2.0 | 4.0 | 0.00 | 0.00 | 0.00 | 87 | 999.0 |
| 20260831131005 | 81 | 171 | 2.0 | 5.0 | 0.00 | 0.00 | 0.00 | 86 | 999.0 |
| 20260831130934 | 81 | 186 | 2.0 | 5.0 | 0.00 | 0.00 | 0.00 | 86 | 999.0 |
| 20260831130455 | 81 | 187 | 3.0 | 4.0 | 0.00 | 0.00 | 0.00 | 86 | 998.9 |
| 20260831130433 | 81 | 201 | 3.0 | 4.0 | 0.00 | 0.00 | 0.00 | 86 | 998.9 |
| 20260831125945 | 81 | 177 | 3.0 | 5.0 | 0.00 | 0.00 | 0.00 | 85 | 998.9 |
| 20260831125934 | 81 | 195 | 2.0 | 5.0 | 0.00 | 0.00 | 0.00 | 85 | 998.9 |
| 20260831125436 | 82 | 229 | 2.0 | 6.0 | 0.00 | 0.00 | 0.00 | 85 | 998.9 |
| 20260831125434 | 82 | 232 | 2.0 | 6.0 | 0.00 | 0.00 | 0.00 | 85 | 998.9 |
| 20260831124933 | 82 | 61 | 0.0 | 4.0 | 0.00 | 0.00 | 0.00 | 84 | 998.9 |
| 20260831124925 | 82 | 88 | 0.0 | 4.0 | 0.00 | 0.00 | 0.00 | 84 | 998.9 |
| 20260831124434 | 82 | 110 | 0.0 | 5.0 | 0.00 | 0.00 | 0.00 | 84 | 998.9 |
| 20260831124415 | 82 | 58 | 0.0 | 5.0 | 0.00 | 0.00 | 0.00 | 84 | 998.9 |
| 20260831123933 | 82 | 77 | 3.0 | 5.0 | 0.00 | 0.00 | 0.00 | 84 | 999.0 |
| 20260831123905 | 82 | 114 | 3.0 | 5.0 | 0.00 | 0.00 | 0.00 | 84 | 998.9 |
| 20260831123434 | 82 | 116 | 1.0 | 4.0 | 0.00 | 0.00 | 0.00 | 84 | 998.9 |
| 20260831123355 | 82 | 48 | 1.0 | 4.0 | 0.00 | 0.00 | 0.00 | 84 | 998.8 |
| 20260831122933 | 82 | 35 | 1.0 | 7.0 | 0.00 | 0.00 | 0.00 | 84 | 998.8 |
| 20260831122844 | 82 | 62 | 2.0 | 7.0 | 0.00 | 0.00 | 0.00 | 84 | 998.8 |
| 20260831122433 | 82 | 104 | 4.0 | 7.0 | 0.00 | 0.00 | 0.00 | 84 | 998.8 |
| 20260831122335 | 82 | 43 | 3.0 | 5.0 | 0.00 | 0.00 | 0.00 | 84 | 998.8 |
| 20260831121934 | 82 | 59 | 3.0 | 6.0 | 0.00 | 0.00 | 0.00 | 84 | 998.8 |
| 20260831121434 | 82 | 73 | 1.0 | 4.0 | 0.00 | 0.00 | 0.00 | 85 | 998.9 |
| 20260831121315 | 82 | 11 | 1.0 | 4.0 | 0.00 | 0.00 | 0.00 | 85 | 998.8 |
| 20260831120934 | 82 | 62 | 1.0 | 3.0 | 0.00 | 0.00 | 0.00 | 85 | 998.7 |
| 20260831120804 | 81 | 5 | 1.0 | 3.0 | 0.00 | 0.00 | 0.00 | 86 | 998.7 |
| 20260831120433 | 81 | 103 | 1.0 | 3.0 | 0.00 | 0.00 | 0.00 | 86 | 998.8 |
| 20260831120254 | 81 | 319 | 1.0 | 2.0 | 0.00 | 0.00 | 0.00 | 86 | 998.7 |
| 20260831115933 | 81 | 346 | 0.0 | 1.0 | 0.00 | 0.00 | 0.00 | 86 | 998.7 |
| 20260831115745 | 81 | 264 | 0.0 | 2.0 | 0.00 | 0.00 | 0.00 | 86 | 998.7 |
| 20260831115433 | 81 | 261 | 0.0 | 6.0 | 0.00 | 0.00 | 0.00 | 86 | 998.7 |
| 20260831115234 | 81 | 213 | 3.0 | 6.0 | 0.00 | 0.00 | 0.00 | 85 | 998.6 |
| 20260831114933 | 81 | 210 | 1.0 | 4.0 | 0.00 | 0.00 | 0.00 | 86 | 998.7 |
| 20260831114725 | 81 | 228 | 1.0 | 2.0 | 0.00 | 0.00 | 0.00 | 86 | 998.6 |
| 20260831114433 | 81 | 235 | 1.0 | 3.0 | 0.00 | 0.00 | 0.00 | 86 | 998.6 |
| 20260831114214 | 81 | 257 | 1.0 | 3.0 | 0.00 | 0.00 | 0.00 | 86 | 998.6 |
| 20260831113933 | 81 | 217 | 2.0 | 5.0 | 0.00 | 0.00 | 0.00 | 85 | 998.6 |
| 20260831113704 | 81 | 216 | 3.0 | 6.0 | 0.00 | 0.00 | 0.00 | 85 | 998.6 |
| 20260831113432 | 81 | 187 | 3.0 | 6.0 | 0.00 | 0.00 | 0.00 | 85 | 998.6 |
| 20260831113155 | 81 | 231 | 2.0 | 5.0 | 0.00 | 0.00 | 0.00 | 85 | 998.6 |
| 20260831112933 | 81 | 284 | 1.0 | 4.0 | 0.00 | 0.00 | 0.00 | 85 | 998.6 |
| 20260831112644 | 81 | 235 | 1.0 | 5.0 | 0.00 | 0.00 | 0.00 | 85 | 998.5 |
| 20260831112433 | 81 | 134 | 1.0 | 10.0 | 0.00 | 0.00 | 0.00 | 85 | 998.5 |
| 20260831112135 | 81 | 174 | 4.0 | 10.0 | 0.00 | 0.00 | 0.00 | 85 | 998.4 |
| 20260831111931 | 81 | 170 | 4.0 | 6.0 | 0.00 | 0.00 | 0.00 | 85 | 998.3 |
| 20260831111624 | 81 | 234 | 1.0 | 2.0 | 0.00 | 0.00 | 0.00 | 85 | 998.2 |
| 20260831111433 | 81 | 241 | 1.0 | 2.0 | 0.00 | 0.00 | 0.00 | 85 | 998.2 |
| 20260831111114 | 81 | 262 | 1.0 | 3.0 | 0.00 | 0.00 | 0.00 | 85 | 998.1 |
| 20260831110933 | 81 | 266 | 2.0 | 3.0 | 0.00 | 0.00 | 0.00 | 85 | 998.0 |
| 20260831110604 | 81 | 214 | 2.0 | 4.0 | 0.00 | 0.00 | 0.00 | 85 | 998.1 |
| 20260831110433 | 81 | 228 | 3.0 | 4.0 | 0.00 | 0.00 | 0.00 | 85 | 998.2 |
| 20260831110054 | 81 | 193 | 2.0 | 3.0 | 0.00 | 0.00 | 0.00 | 85 | 998.2 |
| 20260831105933 | 81 | 189 | 1.0 | 3.0 | 0.00 | 0.00 | 0.00 | 85 | 998.2 |
| 20260831105544 | 81 | 177 | 2.0 | 4.0 | 0.00 | 0.00 | 0.00 | 85 | 998.3 |
| 20260831105432 | 81 | 165 | 1.0 | 4.0 | 0.00 | 0.00 | 0.00 | 85 | 998.3 |
| 20260831105034 | 81 | 213 | 2.0 | 3.0 | 0.00 | 0.00 | 0.00 | 85 | 998.2 |
| 20260831104933 | 81 | 176 | 2.0 | 4.0 | 0.00 | 0.00 | 0.00 | 85 | 998.2 |
| 20260831104523 | 81 | 180 | 3.0 | 5.0 | 0.00 | 0.00 | 0.00 | 85 | 998.1 |
| 20260831104432 | 81 | 233 | 2.0 | 5.0 | 0.00 | 0.00 | 0.00 | 85 | 998.0 |
| 20260831103933 | 81 | 209 | 3.0 | 4.0 | 0.00 | 0.00 | 0.00 | 85 | 998.0 |
| 20260831103504 | 81 | 178 | 3.0 | 5.0 | 0.00 | 0.00 | 0.00 | 85 | 997.9 |
| 20260831103433 | 81 | 173 | 3.0 | 5.0 | 0.00 | 0.00 | 0.00 | 85 | 997.9 |
| 20260831102955 | 81 | 181 | 2.0 | 4.0 | 0.00 | 0.00 | 0.00 | 85 | 997.9 |
| 20260831102932 | 81 | 204 | 3.0 | 4.0 | 0.00 | 0.00 | 0.00 | 85 | 997.8 |
| 20260831102444 | 81 | 210 | 0.0 | 3.0 | 0.00 | 0.00 | 0.00 | 85 | 997.8 |
| 20260831102433 | 81 | 236 | 1.0 | 3.0 | 0.00 | 0.00 | 0.00 | 85 | 997.8 |
| 20260831101934 | 81 | 239 | 2.0 | 4.0 | 0.00 | 0.00 | 0.00 | 85 | 997.8 |
| 20260831101932 | 81 | 258 | 2.0 | 4.0 | 0.00 | 0.00 | 0.00 | 85 | 997.8 |
| 20260831101433 | 82 | 225 | 1.0 | 3.0 | 0.00 | 0.00 | 0.00 | 85 | 997.7 |
| 20260831101424 | 82 | 244 | 1.0 | 3.0 | 0.00 | 0.00 | 0.00 | 85 | 997.7 |
| 20260831100932 | 82 | 25 | 0.0 | 3.0 | 0.00 | 0.00 | 0.00 | 85 | 997.7 |
| 20260831100433 | 82 | 327 | 0.0 | 2.0 | 0.00 | 0.00 | 0.00 | 85 | 997.7 |
| 20260831100404 | 82 | 322 | 0.0 | 2.0 | 0.00 | 0.00 | 0.00 | 85 | 997.7 |
| 20260831095932 | 82 | 266 | 1.0 | 3.0 | 0.00 | 0.00 | 0.00 | 85 | 997.7 |
| 20260831095853 | 82 | 259 | 2.0 | 3.0 | 0.00 | 0.00 | 0.00 | 85 | 997.7 |
| 20260831095432 | 82 | 306 | 1.0 | 2.0 | 0.00 | 0.00 | 0.00 | 85 | 997.6 |
| 20260831095344 | 82 | 323 | 1.0 | 2.0 | 0.00 | 0.00 | 0.00 | 85 | 997.7 |
| 20260831094932 | 82 | 269 | 1.0 | 3.0 | 0.00 | 0.00 | 0.00 | 85 | 997.6 |
| 20260831094833 | 82 | 299 | 1.0 | 3.0 | 0.00 | 0.00 | 0.00 | 85 | 997.6 |
| 20260831094432 | 82 | 243 | 1.0 | 7.0 | 0.00 | 0.00 | 0.00 | 84 | 997.6 |
| 20260831094323 | 82 | 219 | 2.0 | 7.0 | 0.00 | 0.00 | 0.00 | 84 | 997.5 |
| 20260831093932 | 82 | 273 | 1.0 | 3.0 | 0.00 | 0.00 | 0.00 | 84 | 997.5 |
| 20260831093814 | 82 | 238 | 1.0 | 6.0 | 0.00 | 0.00 | 0.00 | 84 | 997.5 |
| 20260831093431 | 82 | 212 | 3.0 | 9.0 | 0.00 | 0.00 | 0.00 | 84 | 997.4 |
| 20260831093304 | 82 | 234 | 3.0 | 9.0 | 0.00 | 0.00 | 0.00 | 84 | 997.4 |
| 20260831092932 | 82 | 226 | 4.0 | 6.0 | 0.00 | 0.00 | 0.00 | 84 | 997.4 |
| 20260831092754 | 82 | 237 | 3.0 | 6.0 | 0.00 | 0.00 | 0.00 | 84 | 997.4 |
| 20260831092432 | 82 | 287 | 2.0 | 5.0 | 0.00 | 0.00 | 0.00 | 84 | 997.5 |
| 20260831092243 | 82 | 214 | 2.0 | 6.0 | 0.00 | 0.00 | 0.00 | 84 | 997.4 |
| 20260831091932 | 83 | 248 | 3.0 | 6.0 | 0.00 | 0.00 | 0.00 | 84 | 997.4 |
| 20260831091734 | 82 | 279 | 2.0 | 6.0 | 0.00 | 0.00 | 0.00 | 84 | 997.5 |
| 20260831091432 | 82 | 252 | 3.0 | 6.0 | 0.00 | 0.00 | 0.00 | 84 | 997.5 |
| 20260831091223 | 82 | 210 | 3.0 | 6.0 | 0.00 | 0.00 | 0.00 | 84 | 997.5 |
| 20260831090932 | 82 | 214 | 1.0 | 7.0 | 0.00 | 0.00 | 0.00 | 84 | 997.5 |
| 20260831090713 | 82 | 260 | 1.0 | 7.0 | 0.00 | 0.00 | 0.00 | 84 | 997.5 |
| 20260831090432 | 82 | 265 | 3.0 | 6.0 | 0.00 | 0.00 | 0.00 | 84 | 997.5 |
| 20260831090203 | 82 | 203 | 2.0 | 7.0 | 0.00 | 0.00 | 0.00 | 84 | 997.5 |
| 20260831085931 | 82 | 225 | 2.0 | 7.0 | 0.00 | 0.00 | 0.00 | 84 | 997.6 |
| 20260831085653 | 82 | 226 | 3.0 | 6.0 | 0.00 | 0.00 | 0.00 | 83 | 997.5 |
| 20260831085432 | 82 | 185 | 4.0 | 8.0 | 0.00 | 0.00 | 0.00 | 83 | 997.5 |
| 20260831085143 | 82 | 213 | 4.0 | 8.0 | 0.00 | 0.00 | 0.00 | 83 | 997.5 |
| 20260831084931 | 82 | 178 | 3.0 | 7.0 | 0.00 | 0.00 | 0.00 | 83 | 997.5 |
| 20260831084633 | 83 | 168 | 4.0 | 8.0 | 0.00 | 0.00 | 0.00 | 82 | 997.4 |
| 20260831084432 | 83 | 294 | 4.0 | 8.0 | 0.00 | 0.00 | 0.00 | 82 | 997.4 |
| 20260831084123 | 83 | 217 | 4.0 | 6.0 | 0.00 | 0.00 | 0.00 | 82 | 997.4 |
| 20260831083613 | 83 | 192 | 4.0 | 7.0 | 0.00 | 0.00 | 0.00 | 82 | 997.4 |
| 20260831083432 | 83 | 169 | 3.0 | 6.0 | 0.00 | 0.00 | 0.00 | 82 | 997.4 |
| 20260831083102 | 83 | 173 | 4.0 | 6.0 | 0.00 | 0.00 | 0.00 | 83 | 997.5 |
| 20260831082931 | 83 | 248 | 3.0 | 5.0 | 0.00 | 0.00 | 0.00 | 84 | 997.4 |
| 20260831082553 | 83 | 181 | 2.0 | 6.0 | 0.00 | 0.00 | 0.00 | 84 | 997.4 |
| 20260831082432 | 82 | 177 | 3.0 | 6.0 | 0.00 | 0.00 | 0.00 | 84 | 997.4 |
| 20260831082042 | 82 | 241 | 2.0 | 6.0 | 0.00 | 0.00 | 0.00 | 84 | 997.3 |
| 20260831081932 | 82 | 241 | 3.0 | 6.0 | 0.00 | 0.00 | 0.00 | 84 | 997.4 |
| 20260831081533 | 82 | 185 | 2.0 | 5.0 | 0.00 | 0.00 | 0.00 | 85 | 997.4 |
| 20260831081432 | 82 | 200 | 3.0 | 6.0 | 0.00 | 0.00 | 0.00 | 85 | 997.4 |
| 20260831081022 | 81 | 223 | 4.0 | 10.0 | 0.00 | 0.00 | 0.00 | 85 | 997.3 |
| 20260831080931 | 81 | 201 | 6.0 | 10.0 | 0.00 | 0.00 | 0.00 | 85 | 997.4 |
| 20260831080513 | 82 | 214 | 4.0 | 8.0 | 0.00 | 0.00 | 0.00 | 85 | 997.5 |
| 20260831080431 | 82 | 245 | 5.0 | 8.0 | 0.00 | 0.00 | 0.00 | 85 | 997.5 |
| 20260831080002 | 82 | 204 | 4.0 | 8.0 | 0.00 | 0.00 | 0.00 | 85 | 997.5 |
| 20260831075931 | 81 | 213 | 4.0 | 8.0 | 0.00 | 0.00 | 0.00 | 85 | 997.5 |
| 20260831075453 | 81 | 195 | 5.0 | 8.0 | 0.00 | 0.00 | 0.00 | 85 | 997.5 |
| 20260831075432 | 81 | 205 | 5.0 | 8.0 | 0.00 | 0.00 | 0.00 | 85 | 997.5 |
| 20260831074942 | 81 | 182 | 3.0 | 9.0 | 0.00 | 0.00 | 0.00 | 86 | 997.5 |
| 20260831074931 | 81 | 198 | 3.0 | 9.0 | 0.00 | 0.00 | 0.00 | 86 | 997.5 |
| 20260831074433 | 81 | 219 | 4.0 | 10.0 | 0.00 | 0.00 | 0.00 | 85 | 997.5 |
| 20260831074431 | 81 | 229 | 4.0 | 10.0 | 0.00 | 0.00 | 0.00 | 85 | 997.5 |
| 20260831073931 | 81 | 184 | 4.0 | 6.0 | 0.00 | 0.00 | 0.00 | 85 | 997.6 |
| 20260831073922 | 81 | 226 | 4.0 | 6.0 | 0.00 | 0.00 | 0.00 | 85 | 997.6 |
| 20260831073431 | 81 | 170 | 3.0 | 6.0 | 0.00 | 0.00 | 0.00 | 85 | 997.7 |
| 20260831072931 | 81 | 183 | 3.0 | 4.0 | 0.00 | 0.00 | 0.00 | 85 | 997.7 |
| 20260831072902 | 81 | 202 | 3.0 | 4.0 | 0.00 | 0.00 | 0.00 | 85 | 997.7 |
| 20260831072431 | 82 | 211 | 1.0 | 3.0 | 0.00 | 0.00 | 0.00 | 86 | 997.7 |
| 20260831072352 | 82 | 239 | 1.0 | 3.0 | 0.00 | 0.00 | 0.00 | 86 | 997.7 |
| 20260831071931 | 81 | 250 | 2.0 | 3.0 | 0.00 | 0.00 | 0.00 | 86 | 997.7 |
| 20260831071842 | 81 | 229 | 1.0 | 2.0 | 0.00 | 0.00 | 0.00 | 87 | 997.7 |
| 20260831071430 | 81 | 238 | 0.0 | 2.0 | 0.00 | 0.00 | 0.00 | 87 | 997.6 |
| 20260831071332 | 81 | 299 | 0.0 | 2.0 | 0.00 | 0.00 | 0.00 | 87 | 997.7 |
| 20260831070931 | 81 | 262 | 1.0 | 3.0 | 0.00 | 0.00 | 0.00 | 87 | 997.6 |
| 20260831070822 | 80 | 266 | 1.0 | 4.0 | 0.00 | 0.00 | 0.00 | 87 | 997.6 |
| 20260831070430 | 80 | 180 | 2.0 | 5.0 | 0.00 | 0.00 | 0.00 | 87 | 997.6 |
| 20260831070312 | 80 | 221 | 2.0 | 5.0 | 0.00 | 0.00 | 0.00 | 87 | 997.6 |
| 20260831065931 | 80 | 216 | 3.0 | 5.0 | 0.00 | 0.00 | 0.00 | 88 | 997.5 |
| 20260831065802 | 80 | 199 | 1.0 | 3.0 | 0.00 | 0.00 | 0.00 | 88 | 997.6 |
| 20260831065430 | 80 | 188 | 2.0 | 3.0 | 0.00 | 0.00 | 0.00 | 88 | 997.7 |
| 20260831065252 | 80 | 212 | 2.0 | 4.0 | 0.00 | 0.00 | 0.00 | 88 | 997.7 |
| 20260831064931 | 80 | 192 | 2.0 | 4.0 | 0.00 | 0.00 | 0.00 | 88 | 997.7 |
| 20260831064742 | 80 | 201 | 2.0 | 4.0 | 0.00 | 0.00 | 0.00 | 88 | 997.8 |
| 20260831064430 | 80 | 178 | 3.0 | 4.0 | 0.00 | 0.00 | 0.00 | 89 | 997.9 |
| 20260831064232 | 80 | 174 | 3.0 | 4.0 | 0.00 | 0.00 | 0.00 | 89 | 997.9 |